This demonstration page uses our WeatherBlox Daily Observations layout. Learn more.

Left ArrowRight Arrow

39.29038, -76.61219

Hourly Observations for September 15, 2020

Temp ( °F °C ) Dew Point ( °F °C ) Humidity (%) Winds ( mph kmh ) Pressure ( in mb ) Visibility ( mi km ) Precip ( " mm )
12:54 am 00:54 Mostly Cloudy 63 17.2 46 7.8 54 54 NNE 10 17 30.26 1025 10 16 0.00 0.00
1:54 am 01:54 Mostly Cloudy 60 15.6 46 7.8 60 60 N 8 13 30.27 1025 10 16 0.00 0.00
2:54 am 02:54 Mostly Cloudy 58 14.4 44 6.7 60 60 NNE 9 15 30.28 1025 10 16 0.00 0.00
3:54 am 03:54 Mostly Cloudy 56 13.3 43 6.1 62 62 N 5 7 30.29 1026 10 16 0.00 0.00
4:54 am 04:54 Mostly Cloudy 55 12.8 43 6.1 64 64 N 5 7 30.30 1026 10 16 0.00 0.00
5:54 am 05:54 Mostly Cloudy 53 11.7 44 6.7 72 72 N 3 6 30.31 1026 10 16 0.00 0.00
6:54 am 06:54 Mostly Cloudy 53 11.7 42 5.6 66 66 N 6 9 30.33 1027 10 16 0.00 0.00
7:54 am 07:54 Mostly Cloudy 54 12.2 43 6.1 67 67 N 6 9 30.35 1028 10 16 0.00 0.00
8:54 am 08:54 Mostly Cloudy 58 14.4 43 6.1 58 58 NE 10 17 30.35 1028 10 16 0.00 0.00
9:54 am 09:54 Cloudy 59 15 43 6.1 56 56 NNE 12 19 30.36 1028 10 16 0.00 0.00
10:54 am 10:54 Cloudy 62 16.7 43 6.1 50 50 N 9 15 30.36 1028 10 16 0.00 0.00
11:54 am 11:54 Cloudy 65 18.3 42 5.6 43 43 NNE 5 7 30.34 1027 10 16 0.00 0.00
12:54 pm 12:54 Cloudy 67 19.4 43 6.1 42 42 Calm 30.32 1027 10 16 0.00 0.00
1:54 pm 13:54 Mostly Cloudy 68 20 41 5 38 38 VRB 3 6 30.31 1026 10 16 0.00 0.00
2:54 pm 14:54 Mostly Cloudy 69 20.6 42 5.6 38 38 Calm 30.29 1026 10 16 0.00 0.00
3:54 pm 15:54 Mostly Cloudy 69 20.6 42 5.6 38 38 VRB 6 9 30.27 1025 10 16 0.00 0.00
4:54 pm 16:54 Mostly Cloudy 67 19.4 44 6.7 44 44 E 7 11 30.27 1025 10 16 0.00 0.00
5:54 pm 17:54 Mostly Cloudy 65 18.3 46 7.8 51 51 E 7 11 30.27 1025 10 16 0.00 0.00
6:54 pm 18:54 Sunny 63 17.2 46 7.8 54 54 SE 5 7 30.28 1025 10 16 0.00 0.00
7:54 pm 19:54 Mostly Cloudy 62 16.7 47 8.3 58 58 Calm 30.28 1025 10 16 0.00 0.00
8:54 pm 20:54 Mostly Cloudy 54 12.2 50 10 87 87 Calm 30.29 1026 10 16 0.00 0.00
9:54 pm 21:54 Mostly Cloudy 55 12.8 49 9.4 80 80 Calm 30.30 1026 10 16 0.00 0.00
10:54 pm 22:54 Mostly Cloudy 53 11.7 49 9.4 86 86 Calm 30.29 1026 10 16 0.00 0.00
11:54 pm 23:54 Mostly Cloudy 51 10.6 49 9.4 92 92 Calm 30.28 1025 10 16 0.00 0.00

Powered by AerisWeather